Location: Albany
(35.0000°S, 118.0000°E)
Time: 01:21:10
(UTC-04:00)

Atlas Centaur 2 - Visible Passes

Search period start: 25 June 2017 00:00
Search period end: 05 July 2017 00:00
Orbit: 459 x 1313 km, 30.4° (Epoch: 24 June)

Date Brightness Start Highest point End Pass type
(mag) Time Alt. Az. Time Alt. Az. Time Alt. Az.
25 Jun 4.6 15:44:58 20° NE 15:44:58 20° NE 15:49:55 10° ENE visible
25 Jun 3.7 17:27:38 16° NW 17:33:18 47° NNE 17:41:14 10° E visible
26 Jun 4.5 15:42:23 22° NE 15:42:23 22° NE 15:46:50 10° E visible
26 Jun 3.5 17:25:04 21° NW 17:29:49 51° NNE 17:37:49 10° E visible
27 Jun 4.5 15:39:42 24° NE 15:39:42 24° NE 15:43:38 10° E visible
27 Jun 3.3 17:22:22 26° NW 17:26:23 55° NNE 17:34:23 10° E visible
28 Jun 4.5 15:36:56 23° ENE 15:36:56 23° ENE 15:40:22 10° E visible
28 Jun 3.2 17:19:35 31° NW 17:22:57 58° N 17:30:55 10° E visible
29 Jun 4.6 15:34:04 22° ENE 15:34:04 22° ENE 15:37:00 10° E visible
29 Jun 3.0 17:16:43 36° WNW 17:19:33 60° N 17:27:26 10° E visible
30 Jun 4.6 15:31:11 21° ENE 15:31:11 21° ENE 15:33:37 10° E visible
30 Jun 2.9 17:13:49 40° NW 17:16:11 61° N 17:23:56 10° E visible
01 Jul 4.7 15:28:14 19° ENE 15:28:14 19° ENE 15:30:13 10° E visible
01 Jul 2.9 17:10:53 44° NW 17:12:49 60° N 17:20:26 10° ENE visible
02 Jul 4.8 15:25:15 17° E 15:25:15 17° E 15:26:48 10° E visible
02 Jul 2.8 17:07:54 47° NW 17:09:27 58° N 17:16:54 10° ENE visible
03 Jul 4.9 15:22:17 15° E 15:22:17 15° E 15:23:22 10° E visible
03 Jul 2.7 17:04:56 48° NW 17:06:07 55° N 17:13:21 10° ENE visible
04 Jul 5.1 15:19:18 13° E 15:19:18 13° E 15:19:55 10° E visible
04 Jul 2.7 17:01:57 48° NNW 17:02:47 51° N 17:09:46 10° ENE visible
04 Jul 4.0 18:46:10 10° W 18:51:55 31° NNW 18:58:39 10° NE visible
